Year,Month,Day,Hour,Minute,Value (Times are PST for temperature in C)
2023,02,24,00,00,-4.70
2023,02,24,00,01,-4.80
2023,02,24,00,02,-4.80
2023,02,24,00,03,-4.80
2023,02,24,00,04,-4.80
2023,02,24,00,05,-4.90
2023,02,24,00,06,-4.90
2023,02,24,00,07,-4.90
2023,02,24,00,08,-4.90
2023,02,24,00,09,-4.90
2023,02,24,00,10,-4.90
2023,02,24,00,11,-4.90
2023,02,24,00,12,-4.90
2023,02,24,00,13,-4.90
2023,02,24,00,14,-4.90
2023,02,24,00,15,-4.90
2023,02,24,00,16,-5.00
2023,02,24,00,17,-5.00
2023,02,24,00,18,-5.00
2023,02,24,00,19,-5.00
2023,02,24,00,20,-5.00
2023,02,24,00,21,-5.00
2023,02,24,00,22,-5.00
2023,02,24,00,23,-5.10
2023,02,24,00,24,-5.10
2023,02,24,00,25,-5.10
2023,02,24,00,26,-5.10
2023,02,24,00,27,-5.10
2023,02,24,00,28,-5.10
2023,02,24,00,29,-5.10
2023,02,24,00,30,-5.10
2023,02,24,00,31,-5.10
2023,02,24,00,32,-5.10
2023,02,24,00,33,-5.10
2023,02,24,00,34,-5.10
2023,02,24,00,35,-5.10
2023,02,24,00,36,-5.10
2023,02,24,00,37,-5.10
2023,02,24,00,38,-5.10
2023,02,24,00,39,-5.10
2023,02,24,00,40,-5.10
2023,02,24,00,41,-5.10
2023,02,24,00,42,-5.10
2023,02,24,00,43,-5.10
2023,02,24,00,44,-5.20
2023,02,24,00,45,-5.20
2023,02,24,00,46,-5.20
2023,02,24,00,47,-5.20
2023,02,24,00,48,-5.20
2023,02,24,00,49,-5.20
2023,02,24,00,50,-5.20
2023,02,24,00,51,-5.20
2023,02,24,00,52,-5.20
2023,02,24,00,53,-5.20
2023,02,24,00,54,-5.20
2023,02,24,00,55,-5.20
2023,02,24,00,56,-5.20
2023,02,24,00,57,-5.20
2023,02,24,00,58,-5.20
2023,02,24,00,59,-5.20
2023,02,24,01,00,-5.20
2023,02,24,01,01,-5.20
2023,02,24,01,02,-5.20
2023,02,24,01,03,-5.20
2023,02,24,01,04,-5.20
2023,02,24,01,05,-5.20
2023,02,24,01,06,-5.20
2023,02,24,01,07,-5.20
2023,02,24,01,08,-5.20
2023,02,24,01,09,-5.20
2023,02,24,01,10,-5.20
2023,02,24,01,11,-5.20
2023,02,24,01,12,-5.20
2023,02,24,01,13,-5.20
2023,02,24,01,14,-5.20
2023,02,24,01,15,-5.20
2023,02,24,01,16,-5.20
2023,02,24,01,17,-5.20
2023,02,24,01,18,-5.20
2023,02,24,01,19,-5.20
2023,02,24,01,20,-5.20
2023,02,24,01,21,-5.20
2023,02,24,01,22,-5.20
2023,02,24,01,23,-5.20
2023,02,24,01,24,-5.20
2023,02,24,01,25,-5.20
2023,02,24,01,26,-5.20
2023,02,24,01,27,-5.20
2023,02,24,01,28,-5.30
2023,02,24,01,29,-5.30
2023,02,24,01,30,-5.30
2023,02,24,01,31,-5.30
2023,02,24,01,32,-5.30
2023,02,24,01,33,-5.30
2023,02,24,01,34,-5.30
2023,02,24,01,35,-5.40
2023,02,24,01,36,-5.40
2023,02,24,01,37,-5.40
2023,02,24,01,38,-5.40
2023,02,24,01,39,-5.50
2023,02,24,01,40,-5.50
2023,02,24,01,41,-5.50
2023,02,24,01,42,-5.50
2023,02,24,01,43,-5.50
2023,02,24,01,44,-5.50
2023,02,24,01,45,-5.50
2023,02,24,01,46,-5.50
2023,02,24,01,47,-5.60
2023,02,24,01,48,-5.60
2023,02,24,01,49,-5.60
2023,02,24,01,50,-5.60
2023,02,24,01,51,-5.60
2023,02,24,01,52,-5.60
2023,02,24,01,53,-5.60
2023,02,24,01,54,-5.60
2023,02,24,01,55,-5.60
2023,02,24,01,56,-5.60
2023,02,24,01,57,-5.60
2023,02,24,01,58,-5.60
2023,02,24,01,59,-5.60
2023,02,24,02,00,-5.60
2023,02,24,02,01,-5.60
2023,02,24,02,02,-5.60
2023,02,24,02,03,-5.60
2023,02,24,02,04,-5.60
2023,02,24,02,05,-5.60
2023,02,24,02,06,-5.60
2023,02,24,02,07,-5.60
2023,02,24,02,08,-5.60
2023,02,24,02,09,-5.70
2023,02,24,02,10,-5.70
2023,02,24,02,11,-5.70
2023,02,24,02,12,-5.70
2023,02,24,02,13,-5.70
2023,02,24,02,14,-5.70
2023,02,24,02,15,-5.60
2023,02,24,02,16,-5.60
2023,02,24,02,17,-5.70
2023,02,24,02,18,-5.60
2023,02,24,02,19,-5.60
2023,02,24,02,20,-5.60
2023,02,24,02,21,-5.70
2023,02,24,02,22,-5.70
2023,02,24,02,23,-5.70
2023,02,24,02,24,-5.70
2023,02,24,02,25,-5.70
2023,02,24,02,26,-5.70
2023,02,24,02,27,-5.70
2023,02,24,02,28,-5.70
2023,02,24,02,29,-5.70
2023,02,24,02,30,-5.70
2023,02,24,02,31,-5.70
2023,02,24,02,32,-5.70
2023,02,24,02,33,-5.80
2023,02,24,02,34,-5.80
2023,02,24,02,35,-5.80
2023,02,24,02,36,-5.80
2023,02,24,02,37,-5.80
2023,02,24,02,38,-5.80
2023,02,24,02,39,-5.80
2023,02,24,02,40,-5.80
2023,02,24,02,41,-5.80
2023,02,24,02,42,-5.80
2023,02,24,02,43,-5.80
2023,02,24,02,44,-5.80
2023,02,24,02,45,-5.80
2023,02,24,02,46,-5.80
2023,02,24,02,47,-5.80
2023,02,24,02,48,-5.80
2023,02,24,02,49,-5.80
2023,02,24,02,50,-5.90
2023,02,24,02,51,-5.90
2023,02,24,02,52,-5.90
2023,02,24,02,53,-5.90
2023,02,24,02,54,-5.90
2023,02,24,02,55,-5.90
2023,02,24,02,56,-5.90
2023,02,24,02,57,-5.90
2023,02,24,02,58,-5.80
2023,02,24,02,59,-5.80
2023,02,24,03,00,-5.80
2023,02,24,03,01,-5.80
2023,02,24,03,02,-5.80
2023,02,24,03,03,-5.80
2023,02,24,03,04,-5.90
2023,02,24,03,05,-5.80
2023,02,24,03,06,-5.90
2023,02,24,03,07,-5.90
2023,02,24,03,08,-5.90
2023,02,24,03,09,-5.90
2023,02,24,03,10,-5.90
2023,02,24,03,11,-5.90
2023,02,24,03,12,-5.90
2023,02,24,03,13,-5.90
2023,02,24,03,14,-5.90
2023,02,24,03,15,-5.90
2023,02,24,03,16,-5.90
2023,02,24,03,17,-5.90
2023,02,24,03,18,-5.90
2023,02,24,03,19,-5.90
2023,02,24,03,20,-5.90
2023,02,24,03,21,-5.90
2023,02,24,03,22,-5.90
2023,02,24,03,23,-5.90
2023,02,24,03,24,-5.90
2023,02,24,03,25,-5.90
2023,02,24,03,26,-5.90
2023,02,24,03,27,-5.90
2023,02,24,03,28,-5.90
2023,02,24,03,29,-6.00
2023,02,24,03,30,-5.90
2023,02,24,03,31,-5.90
2023,02,24,03,32,-6.00
2023,02,24,03,33,-6.00
2023,02,24,03,34,-5.90
2023,02,24,03,35,-6.00
2023,02,24,03,36,-6.00
2023,02,24,03,37,-6.00
2023,02,24,03,38,-6.00
2023,02,24,03,39,-6.00
2023,02,24,03,40,-6.00
2023,02,24,03,41,-6.00
2023,02,24,03,42,-6.00
2023,02,24,03,43,-6.00
2023,02,24,03,44,-6.00
2023,02,24,03,45,-6.10
2023,02,24,03,46,-6.10
2023,02,24,03,47,-6.10
2023,02,24,03,48,-6.10
2023,02,24,03,49,-6.10
2023,02,24,03,50,-6.10
2023,02,24,03,51,-6.10
2023,02,24,03,52,-6.10
2023,02,24,03,53,-6.10
2023,02,24,03,54,-6.10
2023,02,24,03,55,-6.20
2023,02,24,03,56,-6.20
2023,02,24,03,57,-6.20
2023,02,24,03,58,-6.20
2023,02,24,03,59,-6.20
2023,02,24,04,00,-6.20
2023,02,24,04,01,-6.20
2023,02,24,04,02,-6.20
2023,02,24,04,03,-6.20
2023,02,24,04,04,-6.20
2023,02,24,04,05,-6.20
2023,02,24,04,06,-6.20
2023,02,24,04,07,-6.20
2023,02,24,04,08,-6.20
2023,02,24,04,09,-6.20
2023,02,24,04,10,-6.20
2023,02,24,04,11,-6.20
2023,02,24,04,12,-6.20
2023,02,24,04,13,-6.20
2023,02,24,04,14,-6.20
2023,02,24,04,15,-6.20
2023,02,24,04,16,-6.20
2023,02,24,04,17,-6.20
2023,02,24,04,18,-6.20
2023,02,24,04,19,-6.20
2023,02,24,04,20,-6.20
2023,02,24,04,21,-6.20
2023,02,24,04,22,-6.20
2023,02,24,04,23,-6.20
2023,02,24,04,24,-6.20
2023,02,24,04,25,-6.30
2023,02,24,04,26,-6.30
2023,02,24,04,27,-6.30
2023,02,24,04,28,-6.30
2023,02,24,04,29,-6.30
2023,02,24,04,30,-6.30
2023,02,24,04,31,-6.30
2023,02,24,04,32,-6.30
2023,02,24,04,33,-6.30
2023,02,24,04,34,-6.30
2023,02,24,04,35,-6.30
2023,02,24,04,36,-6.30
2023,02,24,04,37,-6.30
2023,02,24,04,38,-6.40
2023,02,24,04,39,-6.40
2023,02,24,04,40,-6.40
2023,02,24,04,41,-6.40
2023,02,24,04,42,-6.40
2023,02,24,04,43,-6.40
2023,02,24,04,44,-6.40
2023,02,24,04,45,-6.40
2023,02,24,04,46,-6.40
2023,02,24,04,47,-6.40
2023,02,24,04,48,-6.40
2023,02,24,04,49,-6.40
2023,02,24,04,50,-6.40
2023,02,24,04,51,-6.40
2023,02,24,04,52,-6.40
2023,02,24,04,53,-6.40
2023,02,24,04,54,-6.50
2023,02,24,04,55,-6.50
2023,02,24,04,56,-6.50
2023,02,24,04,57,-6.50
2023,02,24,04,58,-6.40
2023,02,24,04,59,-6.40
2023,02,24,05,00,-6.40
2023,02,24,05,01,-6.40
2023,02,24,05,02,-6.40
2023,02,24,05,03,-6.50
2023,02,24,05,04,-6.50
2023,02,24,05,05,-6.50
2023,02,24,05,06,-6.50
2023,02,24,05,07,-6.60
2023,02,24,05,08,-6.60
2023,02,24,05,09,-6.60
2023,02,24,05,10,-6.60
2023,02,24,05,11,-6.60
2023,02,24,05,12,-6.60
2023,02,24,05,13,-6.60
2023,02,24,05,14,-6.60
2023,02,24,05,15,-6.60
2023,02,24,05,16,-6.60
2023,02,24,05,17,-6.60
2023,02,24,05,18,-6.60
2023,02,24,05,19,-6.60
2023,02,24,05,20,-6.60
2023,02,24,05,21,-6.60
2023,02,24,05,22,-6.60
2023,02,24,05,23,-6.60
2023,02,24,05,24,-6.60
2023,02,24,05,25,-6.60
2023,02,24,05,26,-6.60
2023,02,24,05,27,-6.60
2023,02,24,05,28,-6.60
2023,02,24,05,29,-6.60
2023,02,24,05,30,-6.60
2023,02,24,05,31,-6.60
2023,02,24,05,32,-6.60
2023,02,24,05,33,-6.60
2023,02,24,05,34,-6.60
2023,02,24,05,35,-6.60
2023,02,24,05,36,-6.60
2023,02,24,05,37,-6.60
2023,02,24,05,38,-6.60
2023,02,24,05,39,-6.60
2023,02,24,05,40,-6.60
2023,02,24,05,41,-6.60
2023,02,24,05,42,-6.60
2023,02,24,05,43,-6.60
2023,02,24,05,44,-6.60
2023,02,24,05,45,-6.60
2023,02,24,05,46,-6.60
2023,02,24,05,47,-6.60
2023,02,24,05,48,-6.60
2023,02,24,05,49,-6.60
2023,02,24,05,50,-6.60
2023,02,24,05,51,-6.60
2023,02,24,05,52,-6.60
2023,02,24,05,53,-6.60
2023,02,24,05,54,-6.60
2023,02,24,05,55,-6.60
2023,02,24,05,56,-6.60
2023,02,24,05,57,-6.60
2023,02,24,05,58,-6.60
2023,02,24,05,59,-6.60
2023,02,24,06,00,-6.60
2023,02,24,06,01,-6.60
2023,02,24,06,02,-6.60
2023,02,24,06,03,-6.70
2023,02,24,06,04,-6.70
2023,02,24,06,05,-6.70
2023,02,24,06,06,-6.70
2023,02,24,06,07,-6.70
2023,02,24,06,08,-6.70
2023,02,24,06,09,-6.70
2023,02,24,06,10,-6.70
2023,02,24,06,11,-6.70
2023,02,24,06,12,-6.70
2023,02,24,06,13,-6.70
2023,02,24,06,14,-6.70
2023,02,24,06,15,-6.70
2023,02,24,06,16,-6.70
2023,02,24,06,17,-6.70
2023,02,24,06,18,-6.70
2023,02,24,06,19,-6.70
2023,02,24,06,20,-6.70
2023,02,24,06,21,-6.70
2023,02,24,06,22,-6.70
2023,02,24,06,23,-6.70
2023,02,24,06,24,-6.70
2023,02,24,06,25,-6.80
2023,02,24,06,26,-6.80
2023,02,24,06,27,-6.80
2023,02,24,06,28,-6.80
2023,02,24,06,29,-6.80
2023,02,24,06,30,-6.80
2023,02,24,06,31,-6.80
2023,02,24,06,32,-6.80
2023,02,24,06,33,-6.80
2023,02,24,06,34,-6.80
2023,02,24,06,35,-6.90
2023,02,24,06,36,-6.90
2023,02,24,06,37,-6.90
2023,02,24,06,38,-6.90
2023,02,24,06,39,-6.90
2023,02,24,06,40,-6.90
2023,02,24,06,41,-6.90
2023,02,24,06,42,-6.90
2023,02,24,06,43,-7.00
2023,02,24,06,44,-7.00
2023,02,24,06,45,-7.00
2023,02,24,06,46,-7.00
2023,02,24,06,47,-7.10
2023,02,24,06,48,-7.10
2023,02,24,06,49,-7.10
2023,02,24,06,50,-7.10
2023,02,24,06,51,-7.10
2023,02,24,06,52,-7.10
2023,02,24,06,53,-7.10
2023,02,24,06,54,-7.10
2023,02,24,06,55,-7.10
2023,02,24,06,56,-7.10
2023,02,24,06,57,-7.20
2023,02,24,06,58,-7.20
2023,02,24,06,59,-7.20
2023,02,24,07,00,-7.20
2023,02,24,07,01,-7.20
2023,02,24,07,02,-7.20
2023,02,24,07,03,-7.20
2023,02,24,07,04,-7.20
2023,02,24,07,05,-7.20
2023,02,24,07,06,-7.20
2023,02,24,07,07,-7.10
2023,02,24,07,08,-7.10
2023,02,24,07,09,-7.10
2023,02,24,07,10,-7.10
2023,02,24,07,11,-7.10
2023,02,24,07,12,-7.10
2023,02,24,07,13,-7.10
2023,02,24,07,14,-7.10
2023,02,24,07,15,-7.10
2023,02,24,07,16,-7.10
2023,02,24,07,17,-7.10
2023,02,24,07,18,-7.10
2023,02,24,07,19,-7.10
2023,02,24,07,20,-7.10
2023,02,24,07,21,-7.10
2023,02,24,07,22,-7.00
2023,02,24,07,23,-7.00
2023,02,24,07,24,-7.00
2023,02,24,07,25,-6.90
2023,02,24,07,26,-6.90
2023,02,24,07,27,-6.90
2023,02,24,07,28,-6.90
2023,02,24,07,29,-6.90
2023,02,24,07,30,-6.90
2023,02,24,07,31,-6.90
2023,02,24,07,32,-6.90
2023,02,24,07,33,-6.90
2023,02,24,07,34,-6.90
2023,02,24,07,35,-6.90
2023,02,24,07,36,-6.80
2023,02,24,07,37,-6.80
2023,02,24,07,38,-6.80
2023,02,24,07,39,-6.80
2023,02,24,07,40,-6.80
2023,02,24,07,41,-6.80
2023,02,24,07,42,-6.80
2023,02,24,07,43,-6.70
2023,02,24,07,44,-6.70
2023,02,24,07,45,-6.70
2023,02,24,07,46,-6.70
2023,02,24,07,47,-6.60
2023,02,24,07,48,-6.60
2023,02,24,07,49,-6.60
2023,02,24,07,50,-6.50
2023,02,24,07,51,-6.50
2023,02,24,07,52,-6.50
2023,02,24,07,53,-6.40
2023,02,24,07,54,-6.40
2023,02,24,07,55,-6.40
2023,02,24,07,56,-6.40
2023,02,24,07,57,-6.40
2023,02,24,07,58,-6.30
2023,02,24,07,59,-6.30
2023,02,24,08,00,-6.30
2023,02,24,08,01,-6.20
2023,02,24,08,02,-6.20
2023,02,24,08,03,-6.20
2023,02,24,08,04,-6.10
2023,02,24,08,05,-6.10
2023,02,24,08,06,-6.10
2023,02,24,08,07,-6.00
2023,02,24,08,08,-6.00
2023,02,24,08,09,-5.90
2023,02,24,08,10,-5.90
2023,02,24,08,11,-5.90
2023,02,24,08,12,-5.80
2023,02,24,08,13,-5.80
2023,02,24,08,14,-5.80
2023,02,24,08,15,-5.70
2023,02,24,08,16,-5.70
2023,02,24,08,17,-5.70
2023,02,24,08,18,-5.60
2023,02,24,08,19,-5.60
2023,02,24,08,20,-5.60
2023,02,24,08,21,-5.50
2023,02,24,08,22,-5.50
2023,02,24,08,23,-5.50
2023,02,24,08,24,-5.40
2023,02,24,08,25,-5.40
2023,02,24,08,26,-5.40
2023,02,24,08,27,-5.30
2023,02,24,08,28,-5.30
2023,02,24,08,29,-5.30
2023,02,24,08,30,-5.30
2023,02,24,08,31,-5.20
2023,02,24,08,32,-5.20
2023,02,24,08,33,-5.20
2023,02,24,08,34,-5.10
2023,02,24,08,35,-5.10
2023,02,24,08,36,-5.10
2023,02,24,08,37,-5.00
2023,02,24,08,38,-5.00
2023,02,24,08,39,-5.00
2023,02,24,08,40,-4.90
2023,02,24,08,41,-4.90
2023,02,24,08,42,-4.80
2023,02,24,08,43,-4.80
2023,02,24,08,44,-4.80
2023,02,24,08,45,-4.70
2023,02,24,08,46,-4.70
2023,02,24,08,47,-4.60
2023,02,24,08,48,-4.60
2023,02,24,08,49,-4.60
2023,02,24,08,50,-4.50
2023,02,24,08,51,-4.40
2023,02,24,08,52,-4.40
2023,02,24,08,53,-4.40
2023,02,24,08,54,-4.30
2023,02,24,08,55,-4.30
2023,02,24,08,56,-4.20
2023,02,24,08,57,-4.20
2023,02,24,08,58,-4.10
2023,02,24,08,59,-4.10
2023,02,24,09,00,-4.00
2023,02,24,09,01,-4.00
2023,02,24,09,02,-4.00
2023,02,24,09,03,-3.90
2023,02,24,09,04,-3.90
2023,02,24,09,05,-3.90
2023,02,24,09,06,-3.90
2023,02,24,09,07,-3.90
2023,02,24,09,08,-3.90
2023,02,24,09,09,-3.90
2023,02,24,09,10,-3.90
2023,02,24,09,11,-3.80
2023,02,24,09,12,-3.80
2023,02,24,09,13,-3.80
2023,02,24,09,14,-3.80
2023,02,24,09,15,-3.80
2023,02,24,09,16,-3.80
2023,02,24,09,17,-3.80
2023,02,24,09,18,-3.70
2023,02,24,09,19,-3.70
2023,02,24,09,20,-3.70
2023,02,24,09,21,-3.70
2023,02,24,09,22,-3.70
2023,02,24,09,23,-3.60
2023,02,24,09,24,-3.60
2023,02,24,09,25,-3.60
2023,02,24,09,26,-3.60
2023,02,24,09,27,-3.60
2023,02,24,09,28,-3.60
2023,02,24,09,29,-3.60
2023,02,24,09,30,-3.50
2023,02,24,09,31,-3.50
2023,02,24,09,32,-3.40
2023,02,24,09,33,-3.40
2023,02,24,09,34,-3.30
2023,02,24,09,35,-3.30
2023,02,24,09,36,-3.30
2023,02,24,09,37,-3.30
2023,02,24,09,38,-3.20
2023,02,24,09,39,-3.20
2023,02,24,09,40,-3.10
2023,02,24,09,41,-3.20
2023,02,24,09,42,-3.10
2023,02,24,09,43,-3.10
2023,02,24,09,44,-3.10
2023,02,24,09,45,-3.10
2023,02,24,09,46,-3.10
2023,02,24,09,47,-3.10
2023,02,24,09,48,-3.10
2023,02,24,09,49,-3.10
2023,02,24,09,50,-3.10
2023,02,24,09,51,-3.00
2023,02,24,09,52,-3.00
2023,02,24,09,53,-2.90
2023,02,24,09,54,-2.80
2023,02,24,09,55,-2.80
2023,02,24,09,56,-2.80
2023,02,24,09,57,-2.80
2023,02,24,09,58,-2.80
2023,02,24,09,59,-2.80
2023,02,24,10,00,-2.80
2023,02,24,10,01,-2.70
2023,02,24,10,02,-2.70
2023,02,24,10,03,-2.70
2023,02,24,10,04,-2.70
2023,02,24,10,05,-2.70
2023,02,24,10,06,-2.70
2023,02,24,10,07,-2.60
2023,02,24,10,08,-2.60
2023,02,24,10,09,-2.50
2023,02,24,10,10,-2.60
2023,02,24,10,11,-2.60
2023,02,24,10,12,-2.60
2023,02,24,10,13,-2.60
2023,02,24,10,14,-2.60
2023,02,24,10,15,-2.50
2023,02,24,10,16,-2.40
2023,02,24,10,17,-2.40
2023,02,24,10,18,-2.30
2023,02,24,10,19,-2.30
2023,02,24,10,20,-2.30
2023,02,24,10,21,-2.30
2023,02,24,10,22,-2.30
2023,02,24,10,23,-2.30
2023,02,24,10,24,-2.30
2023,02,24,10,25,-2.20
2023,02,24,10,26,-2.10
2023,02,24,10,27,-2.00
2023,02,24,10,28,-2.00
2023,02,24,10,29,-2.00
2023,02,24,10,30,-1.90
2023,02,24,10,31,-1.90
2023,02,24,10,32,-1.80
2023,02,24,10,33,-1.80
2023,02,24,10,34,-1.80
2023,02,24,10,35,-1.80
2023,02,24,10,36,-1.80
2023,02,24,10,37,-1.80
2023,02,24,10,38,-1.80
2023,02,24,10,39,-1.80
2023,02,24,10,40,-1.80
2023,02,24,10,41,-1.80
2023,02,24,10,42,-1.80
2023,02,24,10,43,-1.80
2023,02,24,10,44,-1.80
2023,02,24,10,45,-1.70
2023,02,24,10,46,-1.70
2023,02,24,10,47,-1.60
2023,02,24,10,48,-1.60
2023,02,24,10,49,-1.60
2023,02,24,10,50,-1.50
2023,02,24,10,51,-1.50
2023,02,24,10,52,-1.40
2023,02,24,10,53,-1.40
2023,02,24,10,54,-1.30
2023,02,24,10,55,-1.30
2023,02,24,10,56,-1.30
2023,02,24,10,57,-1.30
2023,02,24,10,58,-1.30
2023,02,24,10,59,-1.30
2023,02,24,11,00,-1.40
2023,02,24,11,01,-1.40
2023,02,24,11,02,-1.40
2023,02,24,11,03,-1.40
2023,02,24,11,04,-1.40
2023,02,24,11,05,-1.40
2023,02,24,11,06,-1.40
2023,02,24,11,07,-1.40
2023,02,24,11,08,-1.40
2023,02,24,11,09,-1.30
2023,02,24,11,10,-1.30
2023,02,24,11,11,-1.30
2023,02,24,11,12,-1.20
2023,02,24,11,13,-1.20
2023,02,24,11,14,-1.20
2023,02,24,11,15,-1.20
2023,02,24,11,16,-1.10
2023,02,24,11,17,-1.10
2023,02,24,11,18,-1.10
2023,02,24,11,19,-1.10
2023,02,24,11,20,-1.00
2023,02,24,11,21,-1.00
2023,02,24,11,22,-1.00
2023,02,24,11,23,-1.00
2023,02,24,11,24,-1.00
2023,02,24,11,25,-1.00
2023,02,24,11,26,-1.00
2023,02,24,11,27,-0.90
2023,02,24,11,28,-0.90
2023,02,24,11,29,-0.90
2023,02,24,11,30,-0.90
2023,02,24,11,31,-1.00
2023,02,24,11,32,-0.90
2023,02,24,11,33,-1.00
2023,02,24,11,34,-1.00
2023,02,24,11,35,-0.90
2023,02,24,11,36,-0.90
2023,02,24,11,37,-0.80
2023,02,24,11,38,-0.80
2023,02,24,11,39,-0.80
2023,02,24,11,40,-0.70
2023,02,24,11,41,-0.70
2023,02,24,11,42,-0.70
2023,02,24,11,43,-0.70
2023,02,24,11,44,-0.70
2023,02,24,11,45,-0.80
2023,02,24,11,46,-0.80
2023,02,24,11,47,-0.80
2023,02,24,11,48,-0.70
2023,02,24,11,49,-0.70
2023,02,24,11,50,-0.70
2023,02,24,11,51,-0.70
2023,02,24,11,52,-0.60
2023,02,24,11,53,-0.60
2023,02,24,11,54,-0.60
2023,02,24,11,55,-0.60
2023,02,24,11,56,-0.50
2023,02,24,11,57,-0.50
2023,02,24,11,58,-0.50
2023,02,24,11,59,-0.40
2023,02,24,12,00,-0.40
2023,02,24,12,01,-0.40
2023,02,24,12,02,-0.40
2023,02,24,12,03,-0.40
2023,02,24,12,04,-0.40
2023,02,24,12,05,-0.40
2023,02,24,12,06,-0.40
2023,02,24,12,07,-0.40
2023,02,24,12,08,-0.40
2023,02,24,12,09,-0.40
2023,02,24,12,10,-0.40
2023,02,24,12,11,-0.40
2023,02,24,12,12,-0.40
2023,02,24,12,13,-0.40
2023,02,24,12,14,-0.50
2023,02,24,12,15,-0.50
2023,02,24,12,16,-0.50
2023,02,24,12,17,-0.50
2023,02,24,12,18,-0.50
2023,02,24,12,19,-0.60
2023,02,24,12,20,-0.60
2023,02,24,12,21,-0.70
2023,02,24,12,22,-0.70
2023,02,24,12,23,-0.70
2023,02,24,12,24,-0.70
2023,02,24,12,25,-0.70
2023,02,24,12,26,-0.70
2023,02,24,12,27,-0.70
2023,02,24,12,28,-0.70
2023,02,24,12,29,-0.70
2023,02,24,12,30,-0.70
2023,02,24,12,31,-0.60
2023,02,24,12,32,-0.60
2023,02,24,12,33,-0.60
2023,02,24,12,34,-0.60
2023,02,24,12,35,-0.60
2023,02,24,12,36,-0.50
2023,02,24,12,37,-0.60
2023,02,24,12,38,-0.50
2023,02,24,12,39,-0.50
2023,02,24,12,40,-0.60
2023,02,24,12,41,-0.50
2023,02,24,12,42,-0.60
2023,02,24,12,43,-0.60
2023,02,24,12,44,-0.60
2023,02,24,12,45,-0.60
2023,02,24,12,46,-0.60
2023,02,24,12,47,-0.60
2023,02,24,12,48,-0.50
2023,02,24,12,49,-0.50
2023,02,24,12,50,-0.50
2023,02,24,12,51,-0.50
2023,02,24,12,52,-0.60
2023,02,24,12,53,-0.60
2023,02,24,12,54,-0.60
2023,02,24,12,55,-0.60
2023,02,24,12,56,-0.60
2023,02,24,12,57,-0.60
2023,02,24,12,58,-0.50
2023,02,24,12,59,-0.50
2023,02,24,13,00,-0.50
2023,02,24,13,01,-0.50
2023,02,24,13,02,-0.50
2023,02,24,13,03,-0.60
2023,02,24,13,04,-0.60
2023,02,24,13,05,-0.60
2023,02,24,13,06,-0.60
2023,02,24,13,07,-0.60
2023,02,24,13,08,-0.60
2023,02,24,13,09,-0.60
2023,02,24,13,10,-0.60
2023,02,24,13,11,-0.50
2023,02,24,13,12,-0.50
2023,02,24,13,13,-0.50
2023,02,24,13,14,-0.40
2023,02,24,13,15,-0.40
2023,02,24,13,16,-0.40
2023,02,24,13,17,-0.40
2023,02,24,13,18,-0.30
2023,02,24,13,19,-0.30
2023,02,24,13,20,-0.30
2023,02,24,13,21,-0.30
2023,02,24,13,22,-0.30
2023,02,24,13,23,-0.30
2023,02,24,13,24,-0.30
2023,02,24,13,25,-0.30
2023,02,24,13,26,-0.30
2023,02,24,13,27,-0.30
2023,02,24,13,28,-0.30
2023,02,24,13,29,-0.30
2023,02,24,13,30,-0.40
2023,02,24,13,31,-0.40
2023,02,24,13,32,-0.40
2023,02,24,13,33,-0.40
2023,02,24,13,34,-0.40
2023,02,24,13,35,-0.40
2023,02,24,13,36,-0.40
2023,02,24,13,37,-0.30
2023,02,24,13,38,-0.30
2023,02,24,13,39,-0.30
2023,02,24,13,40,-0.20
2023,02,24,13,41,-0.20
2023,02,24,13,42,-0.20
2023,02,24,13,43,-0.20
2023,02,24,13,44,-0.20
2023,02,24,13,45,-0.20
2023,02,24,13,46,-0.20
2023,02,24,13,47,-0.20
2023,02,24,13,48,-0.30
2023,02,24,13,49,-0.30
2023,02,24,13,50,-0.30
2023,02,24,13,51,-0.30
2023,02,24,13,52,-0.30
2023,02,24,13,53,-0.30
2023,02,24,13,54,-0.30
2023,02,24,13,55,-0.30
2023,02,24,13,56,-0.30
2023,02,24,13,57,-0.30
2023,02,24,13,58,-0.30
2023,02,24,13,59,-0.20
2023,02,24,14,00,-0.20
2023,02,24,14,01,-0.20
2023,02,24,14,02,-0.20
2023,02,24,14,03,-0.20
2023,02,24,14,04,-0.20
2023,02,24,14,05,-0.20
2023,02,24,14,06,-0.20
2023,02,24,14,07,-0.20
2023,02,24,14,08,-0.20
2023,02,24,14,09,-0.20
2023,02,24,14,10,-0.20
2023,02,24,14,11,-0.20
2023,02,24,14,12,-0.10
2023,02,24,14,13,-0.20
2023,02,24,14,14,-0.20
2023,02,24,14,15,-0.20
2023,02,24,14,16,-0.20
2023,02,24,14,17,-0.20
2023,02,24,14,18,-0.20
2023,02,24,14,19,-0.20
2023,02,24,14,20,-0.20
2023,02,24,14,21,-0.20
2023,02,24,14,22,-0.20
2023,02,24,14,23,-0.20
2023,02,24,14,24,-0.20
2023,02,24,14,25,-0.20
2023,02,24,14,26,-0.20
2023,02,24,14,27,-0.20
2023,02,24,14,28,-0.20
2023,02,24,14,29,-0.30
2023,02,24,14,30,-0.30
2023,02,24,14,31,-0.30
2023,02,24,14,32,-0.30
2023,02,24,14,33,-0.20
2023,02,24,14,34,-0.20
2023,02,24,14,35,-0.20
2023,02,24,14,36,-0.20
2023,02,24,14,37,-0.30
2023,02,24,14,38,-0.30
2023,02,24,14,39,-0.30
2023,02,24,14,40,-0.30
2023,02,24,14,41,-0.30
2023,02,24,14,42,-0.30
2023,02,24,14,43,-0.30
2023,02,24,14,44,-0.30
2023,02,24,14,45,-0.30
2023,02,24,14,46,-0.30
2023,02,24,14,47,-0.30
2023,02,24,14,48,-0.30
2023,02,24,14,49,-0.30
2023,02,24,14,50,-0.30
2023,02,24,14,51,-0.30
2023,02,24,14,52,-0.30
2023,02,24,14,53,-0.30
2023,02,24,14,54,-0.30
2023,02,24,14,55,-0.30
2023,02,24,14,56,-0.30
2023,02,24,14,57,-0.30
2023,02,24,14,58,-0.30
2023,02,24,14,59,-0.30
2023,02,24,15,00,-0.30
2023,02,24,15,01,-0.30
2023,02,24,15,02,-0.30
2023,02,24,15,03,-0.30
2023,02,24,15,04,-0.30
2023,02,24,15,05,-0.30
2023,02,24,15,06,-0.20
2023,02,24,15,07,-0.20
2023,02,24,15,08,-0.20
2023,02,24,15,09,-0.20
2023,02,24,15,10,-0.20
2023,02,24,15,11,-0.20
2023,02,24,15,12,-0.20
2023,02,24,15,13,-0.20
2023,02,24,15,14,-0.20
2023,02,24,15,15,-0.10
2023,02,24,15,16,-0.10
2023,02,24,15,17,-0.20
2023,02,24,15,18,-0.10
2023,02,24,15,19,-0.10
2023,02,24,15,20,-0.20
2023,02,24,15,21,-0.10
2023,02,24,15,22,-0.10
2023,02,24,15,23,-0.10
2023,02,24,15,24,-0.10
2023,02,24,15,25,-0.10
2023,02,24,15,26,-0.10
2023,02,24,15,27,-0.10
2023,02,24,15,28,-0.10
2023,02,24,15,29,-0.10
2023,02,24,15,30,-0.10
2023,02,24,15,31,-0.10
2023,02,24,15,32,-0.10
2023,02,24,15,33,-0.10
2023,02,24,15,34,-0.10
2023,02,24,15,35,-0.10
2023,02,24,15,36,-0.10
2023,02,24,15,37,-0.10
2023,02,24,15,38,-0.10
2023,02,24,15,39,-0.10
2023,02,24,15,40,-0.10
2023,02,24,15,41,-0.10
2023,02,24,15,42,-0.10
2023,02,24,15,43,-0.10
2023,02,24,15,44,-0.10
2023,02,24,15,45,-0.10
2023,02,24,15,46,-0.10
2023,02,24,15,47,-0.10
2023,02,24,15,48,-0.10
2023,02,24,15,49,-0.10
2023,02,24,15,50,-0.10
2023,02,24,15,51,-0.10
2023,02,24,15,52,-0.10
2023,02,24,15,53,-0.10
2023,02,24,15,54,-0.20
2023,02,24,15,55,-0.10
2023,02,24,15,56,-0.10
2023,02,24,15,57,-0.10
2023,02,24,15,58,-0.10
2023,02,24,15,59,-0.10
2023,02,24,16,00,-0.10
2023,02,24,16,01,-0.10
2023,02,24,16,02,-0.10
2023,02,24,16,03,-0.10
2023,02,24,16,04,0.00
2023,02,24,16,05,0.00
2023,02,24,16,06,0.00
2023,02,24,16,07,0.10
2023,02,24,16,08,0.10
2023,02,24,16,09,0.10
2023,02,24,16,10,0.10
2023,02,24,16,11,0.10
2023,02,24,16,12,0.10
2023,02,24,16,13,0.10
2023,02,24,16,14,0.10
2023,02,24,16,15,0.10
2023,02,24,16,16,0.20
2023,02,24,16,17,0.20
2023,02,24,16,18,0.20
2023,02,24,16,19,0.20
2023,02,24,16,20,0.20
2023,02,24,16,21,0.20
2023,02,24,16,22,0.20
2023,02,24,16,23,0.10
2023,02,24,16,24,0.10
2023,02,24,16,25,0.10
2023,02,24,16,26,0.10
2023,02,24,16,27,0.10
2023,02,24,16,28,0.10
2023,02,24,16,29,0.10
2023,02,24,16,30,0.00
2023,02,24,16,31,0.00
2023,02,24,16,32,0.00
2023,02,24,16,33,0.00
2023,02,24,16,34,0.00
2023,02,24,16,35,0.00
2023,02,24,16,36,-0.10
2023,02,24,16,37,-0.10
2023,02,24,16,38,-0.10
2023,02,24,16,39,0.00
2023,02,24,16,40,-0.10
2023,02,24,16,41,0.00
2023,02,24,16,42,0.00
2023,02,24,16,43,0.00
2023,02,24,16,44,0.00
2023,02,24,16,45,0.00
2023,02,24,16,46,0.00
2023,02,24,16,47,0.00
2023,02,24,16,48,0.10
2023,02,24,16,49,0.10
2023,02,24,16,50,0.10
2023,02,24,16,51,0.10
2023,02,24,16,52,0.20
2023,02,24,16,53,0.20
2023,02,24,16,54,0.20
2023,02,24,16,55,0.20
2023,02,24,16,56,0.20
2023,02,24,16,57,0.20
2023,02,24,16,58,0.20
2023,02,24,16,59,0.30
2023,02,24,17,00,0.30
2023,02,24,17,01,0.30
2023,02,24,17,02,0.30
2023,02,24,17,03,0.30
2023,02,24,17,04,0.30
2023,02,24,17,05,0.20
2023,02,24,17,06,0.20
2023,02,24,17,07,0.20
2023,02,24,17,08,0.30
2023,02,24,17,09,0.30
2023,02,24,17,10,0.30
2023,02,24,17,11,0.30
2023,02,24,17,12,0.30
2023,02,24,17,13,0.30
2023,02,24,17,14,0.40
2023,02,24,17,15,0.40
2023,02,24,17,16,0.30
2023,02,24,17,17,0.30
2023,02,24,17,18,0.30
2023,02,24,17,19,0.30
2023,02,24,17,20,0.30
2023,02,24,17,21,0.30
2023,02,24,17,22,0.30